Погода в Торопеце

Погода в Торопеце : погода сейчас, прогноз погоды и архив. Всё, что Вы хотите узнать о погоде в Торопеце!

Поиск расширенной информации на нашем сайте:

Другие новости

Новости СМИ2

Главная страница сайта

Новости сайта

03.07.2017

Напоминаем, что на нашем специализированном сайте Метеоцентр.Азия вы можете получить высокодетализированные автоматические прогнозы погоды по пунктам России, СНГ и мира в авиационном формате (включающие направление и скорость ветра, видимость, явления погоды, количество и форму облачности, нижнюю и верхнюю границу облачности).


Погода в Торопеце - сегодня

Время (UTC), дата Ветер
(°,м/с) 
Видим.   Явления Облачность Т
(°С)
Тd
(°С)
f(%) Тe
(°С)
Pmin
(гПа)
dP
(гПа)
Po
(мм)
O2
(г/м3)
Тmin Tmax R s Состояние
почвы
03 15.08.17 340 (С) 10 км    ясно 
+10.1 +9.4 95 +11  1026.7  753  291  +9.7         
06 15.08.17 020 (С) 20000 м    ясно 
+16.9 +13.2 79 +24  1027.3  1.2  754  283  +9.7        сухая 
09 15.08.17 020 (С) 20000 м    4/4 1000 м 
[Cu hum]
+20.9 +12.9 60 +26  1027.3  0.3  754  280           
12 15.08.17 060 (СВ) 20000 м    3/3 1000 м 
[Cu hum]
+23.4 +9.7 42 +24  1026.7  -0.5  754  278           
15 15.08.17 020 (С) 20000 м    3/3 600 м 
[Sc]
+21.8 +11.9 53 +25  1026.5  -0.3  753  279           
21 15.08.17 120 (ЮВ) 20000 м    3/0 средняя 
[Ac trans]
+14.7 +10.2 74 +17  1027.7  0.4  754  286           
00 16.08.17 100 (В) 20000 м    ясно 
+12.1 +9.4 84 +13  1028.4  0.5  754  289           
03 16.08.17 тихо ()   10 км    3/0 средняя 
[Ac trans]
+8.2 +7.5 95 +8  1028.5  -0.2  754  294  +8         
06 16.08.17 140 (ЮВ) 20000 м    8/0 средняя 
[Ac trans]
+16.9 +11.2 69 +21  1027.8  754  284  +8        сухая 
09 16.08.17 130 (ЮВ) 20000 м    4/3 1000 м верхняя 
[Cu hum|Ci fib]
+21.7 +10.6 49 +24  1026.7  -0.7  754  279           
12 16.08.17 140 (ЮВ) 20000 м    4/4 600 м 
[Sc]
+22.3 +10.7 48 +24  1025.9  -0.8  753  279           
15 16.08.17 130 (ЮВ) 20000 м    ясно 
+22.2 +10.8 48 +24  1024.9  -1  752  278           
18 16.08.17 100 (В) 20000 м    ясно 
+17.8 +12.1 69 +23  1024.9  -0.3  752  282    +22.8       
21 16.08.17 090 (В) 20000 м    ясно 
+15.5 +12.1 80 +21  1025  -0.1  752  284           
00 17.08.17 130 (ЮВ) 20000 м    ясно 
+15.8 +12.9 83 +21  1024.6  -0.4  752  284           
03 17.08.17 120 (ЮВ) 20000 м    3/3 600 м 
[Sc]
+14.5 +12.6 88 +20  1024.4  -0.3  752  285  +13.7         
06 17.08.17 130 (ЮВ) 20000 м    8/8 600 м 
[Sc]
+18.1 +14.2 78 +26  1024.2  0.1  752  281  +13.7        сухая 
09 17.08.17 150 (ЮВ) 20000 м    9/5 600 м верхняя 
[Sc|Ci fib]
+22.9 +14.8 60 +31  1023.6  -0.3  751  276           
12 17.08.17 140 (ЮВ) 20000 м    10/8 600 м верхняя 
[Sc|Ci sp]
+23.9 +14.5 56 +32  1022.8  -0.6  751  275           
15 17.08.17 150 (ЮВ) 20000 м    4/1 600 м верхняя 
[Sc|Ci sp]
+24.2 +14.8 56 +33  1021.7  -1.1  750  275           
18 17.08.17 120 (ЮВ) 20000 м    3/3 600 м 
[Sc]
+19.8 +16.7 82 +33  1022  750  278    +24.8       
21 17.08.17 110 (В) 20000 м    6/6 600 м кучево-дожд. 
[Cb cap]
+17.6 +16.3 92 +30  1022.1  750  280           
00 18.08.17 130 (ЮВ) 20000 м    9/9 600 м кучево-дожд. 
[Cb cap]
+17.9 +15.7 87 +29  1021.2  -0.9  749  280           
03 18.08.17 130 (ЮВ) 20000 м    8/4 600 м верхняя 
[Sc|Ci sp]
+17.2 +15.6 90 +29  1021.1  -0.2  749  281  +16.9         
06 18.08.17 150 (ЮВ) 20000 м    6/0 средняя, верхняя 
[Ac trans|Ci sp]
+20.7 +16.6 77 +32  1020.8  749  277  +16.9        сухая 
Время (UTC), дата Ветер
(°,м/с) 
Видим.   Явления Облачность Т
(°С)
Тd
(°С)
f(%) Тe
(°С)
Pmin
(гПа)
dP
(гПа)
Po
(мм)
O2
(г/м3)
Тmin Tmax R s Состояние
почвы

Для получения пояснительной информации подведите курсор к названию столбца.

ПОГОДА в Торопеце - архив

Всё, что Вы хотите узнать о погоде в Торопеце - удобно и подробно!

Выберите нужную дату (начиная с 1 января 2015* года) и нажмите кнопку "Найти".
Будут отображены архивные сводки погоды по пункту Торопец, начиная с указанной даты.


Отображать данные в формате CSV (для использования в таблицах Excel)


Внимание! Наш архив погоды предназначен исключительно для личного некоммерческого использования в познавательных целях. Если Вам необходимы официальные справки о состоянии погоды (для производственных, юридических, коммерческих и т.п. целей), обращайтесь в органы Росгидромета.

*Примечание: данная дата относится к архиву по метеостанциям СССР (Россия, СНГ, Балтия).
Архив по метеостанциям Зарубежной Европы и Азии (кроме Китая) хранится 10 дней, по другим регионам земного шара (Китай, Африка, Америка, Австралия, Океания) - 1 день.

Торопец - район местоположения метеостанции


Название, широта, долгота, высота метеостанции:
Торопец 56.5°ш. 31.6°д. 187 м над ур. моря [Российская Федерация]

Дополнительная информация

В oтличие oт бoльшинства пoгoдных сайтoв мы публикуем пoдрoбную метеoинфoрмацию в детальнoм прoфессиoнальнoм фoрмате.

Характеристики температуры и влажнoсти вoздуха измеряются на высoте 2 м в тени вдали oт зданий и деревьев.
Скoрoсть ветра измеряется на высoте 10 м (на урoвне рoста челoвека скoрoсть ветра ниже в 1.5-2 раза). Если метеoстанция нахoдится в гoрoде или в лесу, тo скoрoсть ветра занижена на 2-4 м/с пo сравнению с oткрытым местoм. Скoрoсть ветра над акватoриями крупных рек и oзёр, а также на вершинах хoлмoв на 2-5 м/с выше, чем в oбычных услoвиях.
Атмoсфернoе давление в разных тoчках местнoсти мoжет значительнo oтличаться oт давления на метеoстанции, в зависимoсти oт услoвий рельефа (при пoдъёме на 10 м давление пoнижается примернo на 1 мм рт.ст.).